STARLINK-11355 [DTC] (62415 NORAD) Tracking and Keplerian Element Data

This shows tracking and keplerian element data for the satellite.

Feedback or suggestion? Click here.




ElementValue
Catalog62415
NameSTARLINK-11355 [DTC]
Epoch Orbit682
Epoch Day35.07733537
Epoch Year2025
RAAN50.871
Inclination43.0007
Eccentricity0.0001424
Argument of Perigee271.8509
Mean Anonmoly88.2198
Mean Motion15.77907804
Decay Rate6.112E-05
L11 62415U 24249G 25035.07733537 .00006112 00000+0 37876-4 0 9993
L22 62415 43.0007 50.8710 0001424 271.8509 88.2198 15.77907804 6828



Live tracking and technical data element details for STARLINK-11355 [DTC] (NORAD 62415). STARLINK-11355 [DTC] can be tracked NOW for your location showing map with azimuth and elevation plus other details from your city location.







IsCatalogInMostPopularTable: catalog: 62415, numindb: 22
Update: records affected: 1



GetName: 62415 STARLINK-11355 [DTC]

Hit Count: updated at: Sun, 18 May 2025 22:58:41 GMT